DW8004 Weather Reports


Display with metric or nautical units.
time (UTC)temp
F
wind
direction
speed
MPH
gust
MPH
rain 1hr
in
rain 24hr
in
rain mn
in
humidity
%
barometer
mb
20260509071537 30 218 0.0 0.0 0.00 0.00 0.00 93 1014.4
20260509070002 30 218 0.0 0.0 0.00 0.00 0.00 92 1014.3
20260509064556 30 218 0.0 0.0 0.00 0.00 0.00 91 1014.6
20260509063036 31 218 0.0 0.0 0.00 0.00 0.00 91 1014.5
20260509061528 31 218 0.0 0.0 0.00 0.00 0.00 91 1014.6
20260509060002 31 218 0.0 0.0 0.00 0.00 0.00 92 1014.7
20260509054557 32 218 0.0 0.0 0.00 0.00 0.00 92 1014.9
20260509053054 32 218 0.0 0.0 0.00 0.00 0.00 92 1014.9
20260509051537 32 218 0.0 0.0 0.00 0.00 0.00 92 1014.9
20260509050050 31 218 0.0 0.0 0.00 0.00 0.00 92 1014.8
20260509044541 31 218 0.0 0.0 0.00 0.00 0.00 91 1014.7
20260509043005 31 218 0.0 0.0 0.00 0.00 0.00 90 1014.6
20260509041550 32 218 0.0 0.0 0.00 0.00 0.00 90 1014.5
20260509034541 33 218 0.0 0.0 0.00 0.00 0.00 89 1014.3
20260509033017 33 218 0.0 0.0 0.00 0.00 0.00 89 1014.3
20260509031530 33 218 0.0 0.0 0.00 0.00 0.00 89 1014.2
20260509030005 34 218 0.0 0.0 0.00 0.00 0.00 88 1014.1
20260509024559 34 218 0.0 0.0 0.00 0.00 0.00 88 1013.9
20260509023052 35 218 0.0 0.0 0.00 0.00 0.00 87 1013.8
20260509021528 35 218 0.0 0.0 0.00 0.00 0.00 86 1013.7
20260509020041 36 218 0.0 0.0 0.00 0.00 0.00 85 1013.5
20260509014606 37 218 0.0 0.0 0.00 0.00 0.00 85 1013.3
20260509013054 38 218 0.0 0.0 0.00 0.00 0.00 83 1013.0
20260509011507 38 218 0.0 0.0 0.00 0.00 0.00 81 1012.8
20260509010101 39 218 0.0 0.0 0.00 0.00 0.00 80 1012.7
20260509004555 40 218 0.0 0.0 0.00 0.00 0.00 78 1012.4
20260509003016 42 218 0.0 0.0 0.00 0.00 0.00 77 1012.0
20260509001608 42 218 0.0 0.0 0.00 0.00 0.00 75 1011.9
20260509000100 43 218 0.0 0.0 0.00 0.00 0.00 74 1011.8
20260508234544 44 218 0.0 0.0 0.00 0.00 0.00 71 1011.7
20260508233023 44 236 0.0 0.0 0.00 0.00 0.00 69 1011.4
20260508231506 45 248 0.0 0.0 0.00 0.00 0.00 68 1011.3
20260508230017 45 246 0.0 0.0 0.00 0.00 0.00 69 1011.2
20260508224632 44 246 0.0 0.0 0.00 0.00 0.00 68 1011.1
20260508223104 45 234 0.0 0.0 0.00 0.00 0.00 66 1010.9
20260508221607 45 348 0.0 0.0 0.00 0.00 0.00 65 1010.9
20260508220049 46 280 0.0 0.0 0.00 0.00 0.00 64 1010.8
20260508214552 46 181 0.0 0.0 0.00 0.00 0.00 65 1010.6
20260508213038 46 292 0.0 0.0 0.00 0.00 0.00 61 1010.5
20260508211537 47 144 0.0 0.0 0.00 0.00 0.00 59 1010.3
20260508210013 47 315 0.0 0.0 0.00 0.00 0.00 57 1010.2
20260508204556 48 322 0.0 0.0 0.00 0.00 0.00 55 1010.1
20260508203107 49 257 0.0 0.0 0.00 0.00 0.00 53 1010.1
20260508201541 48 323 0.0 0.0 0.00 0.00 0.00 55 1009.9
20260508200038 47 276 0.0 0.0 0.00 0.00 0.00 56 1010.0
20260508194532 48 272 0.0 0.0 0.00 0.00 0.00 55 1010.1
20260508193009 48 317 0.0 0.0 0.00 0.00 0.00 57 1010.1
20260508191558 47 326 0.0 0.0 0.00 0.00 0.00 58 1010.3
20260508190050 46 274 0.0 0.0 0.00 0.00 0.00 60 1010.6
20260508184550 46 288 0.0 0.0 0.00 0.00 0.00 58 1010.5
20260508183056 46 236 0.0 0.0 0.00 0.00 0.00 58 1010.6
20260508181507 46 319 0.0 0.0 0.00 0.00 0.00 57 1010.7
20260508180052 46 324 0.0 0.0 0.00 0.00 0.00 59 1010.5
20260508174534 46 293 0.0 0.0 0.00 0.00 0.00 59 1010.7
20260508173030 46 294 0.0 0.0 0.00 0.00 0.00 55 1010.6
20260508171608 45 5 0.0 0.0 0.00 0.00 0.00 57 1010.6
20260508164602 46 328 0.0 0.0 0.00 0.00 0.00 54 1010.8
20260508163050 46 355 0.0 0.0 0.00 0.00 0.00 54 1010.6
20260508161538 46 295 0.0 0.0 0.00 0.00 0.00 51 1010.6
20260508160019 46 207 0.0 0.0 0.00 0.00 0.00 52 1010.6
20260508154532 47 259 0.0 0.0 0.00 0.00 0.00 51 1010.5
20260508153018 46 234 0.0 0.0 0.00 0.00 0.00 52 1010.5
20260508151504 46 249 0.0 0.0 0.00 0.00 0.00 53 1010.5
20260508150033 45 257 0.0 0.0 0.00 0.00 0.00 52 1010.4
20260508144505 45 326 0.0 0.0 0.00 0.00 0.00 53 1010.4
20260508143053 44 242 0.0 0.0 0.00 0.00 0.00 56 1010.4
20260508141554 44 234 0.0 0.0 0.00 0.00 0.00 58 1010.5
20260508140019 43 274 0.0 0.0 0.00 0.00 0.00 63 1010.5
20260508134503 42 341 0.0 0.0 0.00 0.00 0.00 66 1010.8
20260508133056 41 269 0.0 0.0 0.00 0.00 0.00 68 1010.9
20260508131601 41 329 0.0 0.0 0.00 0.00 0.00 73 1011.0
20260508124559 38 229 0.0 0.0 0.00 0.00 0.00 81 1011.1
20260508123048 37 225 0.0 0.0 0.00 0.00 0.00 83 1011.2
20260508121541 36 246 0.0 0.0 0.00 0.00 0.00 85 1011.2
20260508120108 35 253 0.0 0.0 0.00 0.00 0.00 88 1011.3
20260508114601 33 188 0.0 0.0 0.00 0.00 0.00 89 1011.3
20260508113044 33 190 0.0 0.0 0.00 0.00 0.00 90 1011.2
20260508111528 32 190 0.0 0.0 0.00 0.00 0.00 90 1011.1
20260508110053 31 190 0.0 0.0 0.00 0.00 0.00 91 1011.0
20260508104554 31 190 0.0 0.0 0.00 0.00 0.00 91 1010.7
20260508103034 30 190 0.0 0.0 0.00 0.00 0.00 92 1010.7
20260508101605 30 190 0.0 0.0 0.00 0.00 0.00 92 1010.6
20260508100052 30 190 0.0 0.0 0.00 0.00 0.00 93 1010.3
20260508094549 29 190 0.0 0.0 0.00 0.00 0.00 92 1010.1
20260508093050 29 190 0.0 0.0 0.00 0.00 0.00 91 1010.1
20260508091537 30 190 0.0 0.0 0.00 0.00 0.00 91 1009.8
20260508090041 30 190 0.0 0.0 0.00 0.00 0.00 91 1009.7
20260508084539 30 190 0.0 0.0 0.00 0.00 0.00 92 1009.7
20260508083051 30 190 0.0 0.0 0.00 0.00 0.00 91 1009.6
20260508081544 30 190 0.0 0.0 0.00 0.00 0.00 91 1009.3
20260508080009 30 190 0.0 0.0 0.00 0.00 0.00 91 1009.4
20260508074553 30 190 0.0 0.0 0.00 0.00 0.00 91 1009.3
20260508073010 30 190 0.0 0.0 0.00 0.00 0.00 91 1009.2